Time,TemperatureF,DewpointF,PressureIn,WindDirection,WindDirectionDegrees,WindSpeedMPH,WindSpeedGustMPH,Humidity,HourlyPrecipIn,Conditions,Clouds,dailyrainin,SoftwareType,DateUTC
2013-03-04 00:00:00,24.6,20.5,29.88,WSW,253,3.0,5.0,84,0.00,,,0.00,Wunderground v.1.15,2013-03-04 05:00:00,
2013-03-04 00:01:00,24.6,20.5,29.88,WNW,282,5.0,5.0,84,0.00,,,0.00,Wunderground v.1.15,2013-03-04 05:01:00,
2013-03-04 00:02:00,24.5,20.4,29.88,West,273,6.0,6.0,84,0.00,,,0.00,Wunderground v.1.15,2013-03-04 05:02:00,
2013-03-04 00:03:00,24.5,20.4,29.88,WNW,286,12.0,12.0,84,0.00,,,0.00,Wunderground v.1.15,2013-03-04 05:03:00,
2013-03-04 00:08:00,24.4,20.3,29.88,WSW,242,3.0,12.0,84,0.00,,,0.00,Wunderground v.1.15,2013-03-04 05:08:00,
2013-03-04 00:13:00,24.4,20.3,29.88,WNW,296,2.0,5.0,84,0.00,,,0.00,Wunderground v.1.15,2013-03-04 05:13:00,
2013-03-04 00:18:00,24.3,20.2,29.88,WNW,285,3.0,7.0,84,0.00,,,0.00,Wunderground v.1.15,2013-03-04 05:18:00,
2013-03-04 00:23:00,24.3,20.2,29.88,West,261,5.0,5.0,84,0.00,,,0.00,Wunderground v.1.15,2013-03-04 05:23:00,
2013-03-04 00:29:00,24.3,20.2,29.88,West,278,4.0,7.0,84,0.00,,,0.00,Wunderground v.1.15,2013-03-04 05:29:00,
2013-03-04 00:34:00,24.4,20.3,29.88,WNW,288,3.0,7.0,84,0.00,,,0.00,Wunderground v.1.15,2013-03-04 05:34:00,
2013-03-04 00:39:00,24.3,20.2,29.88,WNW,286,8.0,8.0,84,0.00,,,0.00,Wunderground v.1.15,2013-03-04 05:39:00,
2013-03-04 00:44:00,24.3,20.2,29.88,West,275,1.0,4.0,84,0.00,,,0.00,Wunderground v.1.15,2013-03-04 05:44:00,
2013-03-04 00:49:00,24.3,20.2,29.88,WSW,253,4.0,5.0,84,0.00,,,0.00,Wunderground v.1.15,2013-03-04 05:49:00,
2013-03-04 00:55:00,24.3,20.2,29.88,WNW,284,5.0,7.0,84,0.00,,,0.00,Wunderground v.1.15,2013-03-04 05:55:00,
2013-03-04 01:00:00,24.3,19.9,29.88,West,279,2.0,4.0,83,0.00,,,0.00,Wunderground v.1.15,2013-03-04 06:00:00,
2013-03-04 01:05:00,24.3,19.9,29.88,West,263,4.0,8.0,83,0.00,,,0.00,Wunderground v.1.15,2013-03-04 06:05:00,
2013-03-04 01:10:00,24.3,19.9,29.89,West,260,3.0,5.0,83,0.00,,,0.00,Wunderground v.1.15,2013-03-04 06:10:00,
2013-03-04 01:15:00,24.3,19.9,29.89,West,272,9.0,9.0,83,0.00,,,0.00,Wunderground v.1.15,2013-03-04 06:15:00,
2013-03-04 01:21:00,24.4,20.0,29.89,West,273,2.0,5.0,83,0.00,,,0.00,Wunderground v.1.15,2013-03-04 06:21:00,
2013-03-04 01:26:00,24.4,20.0,29.89,WSW,251,8.0,8.0,83,0.00,,,0.00,Wunderground v.1.15,2013-03-04 06:26:00,
2013-03-04 01:31:00,24.4,20.0,29.89,West,271,4.0,4.0,83,0.00,,,0.00,Wunderground v.1.15,2013-03-04 06:31:00,
2013-03-04 01:36:00,24.4,20.0,29.89,West,279,4.0,7.0,83,0.00,,,0.00,Wunderground v.1.15,2013-03-04 06:36:00,
2013-03-04 01:41:00,24.4,20.0,29.89,West,264,2.0,4.0,83,0.00,,,0.00,Wunderground v.1.15,2013-03-04 06:41:00,
2013-03-04 01:47:00,24.4,20.0,29.89,WSW,247,5.0,6.0,83,0.00,,,0.00,Wunderground v.1.15,2013-03-04 06:47:00,
2013-03-04 01:52:00,24.4,20.0,29.89,SSW,192,2.0,5.0,83,0.00,,,0.00,Wunderground v.1.15,2013-03-04 06:52:00,
2013-03-04 01:57:00,24.4,20.0,29.89,WNW,290,3.0,7.0,83,0.00,,,0.00,Wunderground v.1.15,2013-03-04 06:57:00,
2013-03-04 02:02:00,24.4,20.0,29.90,West,273,3.0,7.0,83,0.00,,,0.00,Wunderground v.1.15,2013-03-04 07:02:00,
2013-03-04 02:07:00,24.4,20.0,29.89,WNW,296,5.0,9.0,83,0.00,,,0.00,Wunderground v.1.15,2013-03-04 07:07:00,
2013-03-04 02:12:00,24.4,20.0,29.89,West,259,6.0,7.0,83,0.00,,,0.00,Wunderground v.1.15,2013-03-04 07:12:00,
2013-03-04 02:17:00,24.4,20.0,29.89,WSW,246,3.0,9.0,83,0.00,,,0.00,Wunderground v.1.15,2013-03-04 07:17:00,
2013-03-04 02:22:00,24.4,20.0,29.89,West,269,3.0,5.0,83,0.00,,,0.00,Wunderground v.1.15,2013-03-04 07:22:00,
2013-03-04 02:27:00,24.5,20.1,29.89,WNW,288,8.0,11.0,83,0.00,,,0.00,Wunderground v.1.15,2013-03-04 07:27:00,
2013-03-04 02:32:00,24.5,20.1,29.89,WNW,296,4.0,9.0,83,0.00,,,0.00,Wunderground v.1.15,2013-03-04 07:32:00,
2013-03-04 02:37:00,24.5,20.1,29.89,WNW,286,3.0,9.0,83,0.00,,,0.00,Wunderground v.1.15,2013-03-04 07:37:00,
2013-03-04 02:42:00,24.5,19.8,29.89,West,271,5.0,6.0,82,0.00,,,0.00,Wunderground v.1.15,2013-03-04 07:42:00,
2013-03-04 02:47:00,24.5,19.8,29.89,West,272,1.0,10.0,82,0.00,,,0.00,Wunderground v.1.15,2013-03-04 07:47:00,
2013-03-04 02:53:00,24.5,19.8,29.89,West,261,5.0,12.0,82,0.00,,,0.00,Wunderground v.1.15,2013-03-04 07:53:00,
2013-03-04 02:58:00,24.5,19.5,29.89,WNW,300,5.0,12.0,81,0.00,,,0.00,Wunderground v.1.15,2013-03-04 07:58:00,
2013-03-04 03:03:00,24.5,19.5,29.89,WNW,296,3.0,6.0,81,0.00,,,0.00,Wunderground v.1.15,2013-03-04 08:03:00,
2013-03-04 03:08:00,24.5,19.5,29.89,West,271,4.0,9.0,81,0.00,,,0.00,Wunderground v.1.15,2013-03-04 08:08:00,
2013-03-04 03:13:00,24.5,19.5,29.89,WNW,292,2.0,6.0,81,0.00,,,0.00,Wunderground v.1.15,2013-03-04 08:13:00,
2013-03-04 03:18:00,24.4,19.4,29.90,WSW,254,6.0,11.0,81,0.00,,,0.00,Wunderground v.1.15,2013-03-04 08:18:00,
2013-03-04 03:23:00,24.4,19.4,29.89,WNW,288,3.0,6.0,81,0.00,,,0.00,Wunderground v.1.15,2013-03-04 08:23:00,
2013-03-04 03:28:00,24.4,19.4,29.89,West,269,4.0,13.0,81,0.00,,,0.00,Wunderground v.1.15,2013-03-04 08:28:00,
2013-03-04 03:33:00,24.4,19.4,29.90,West,274,3.0,8.0,81,0.00,,,0.00,Wunderground v.1.15,2013-03-04 08:33:00,
2013-03-04 03:38:00,24.4,19.4,29.90,SSW,207,3.0,8.0,81,0.00,,,0.00,Wunderground v.1.15,2013-03-04 08:38:00,
2013-03-04 03:43:00,24.4,19.4,29.90,WNW,294,7.0,7.0,81,0.00,,,0.00,Wunderground v.1.15,2013-03-04 08:43:00,
2013-03-04 03:48:00,24.4,19.4,29.90,West,273,8.0,12.0,81,0.00,,,0.00,Wunderground v.1.15,2013-03-04 08:48:00,
2013-03-04 03:53:00,24.4,19.4,29.90,West,278,3.0,5.0,81,0.00,,,0.00,Wunderground v.1.15,2013-03-04 08:53:00,
2013-03-04 03:58:00,24.4,19.4,29.90,West,270,6.0,16.0,81,0.00,,,0.00,Wunderground v.1.15,2013-03-04 08:58:00,
2013-03-04 04:03:00,24.4,19.4,29.90,WNW,286,6.0,16.0,81,0.00,,,0.00,Wunderground v.1.15,2013-03-04 09:03:00,
2013-03-04 04:08:00,24.5,19.5,29.90,WNW,296,4.0,16.0,81,0.00,,,0.00,Wunderground v.1.15,2013-03-04 09:08:00,
2013-03-04 04:13:00,24.4,19.4,29.90,West,265,4.0,12.0,81,0.00,,,0.00,Wunderground v.1.15,2013-03-04 09:13:00,
2013-03-04 04:18:00,24.5,19.5,29.91,West,265,8.0,17.0,81,0.00,,,0.00,Wunderground v.1.15,2013-03-04 09:18:00,
2013-03-04 04:23:00,24.5,19.5,29.91,West,267,4.0,13.0,81,0.00,,,0.00,Wunderground v.1.15,2013-03-04 09:23:00,
2013-03-04 04:28:00,24.5,19.5,29.91,West,277,6.0,17.0,81,0.00,,,0.00,Wunderground v.1.15,2013-03-04 09:28:00,
2013-03-04 04:33:00,24.5,19.5,29.91,NW,304,14.0,14.0,81,0.00,,,0.00,Wunderground v.1.15,2013-03-04 09:33:00,
2013-03-04 04:38:00,24.4,19.7,29.91,SW,234,6.0,15.0,82,0.00,,,0.00,Wunderground v.1.15,2013-03-04 09:38:00,
2013-03-04 04:43:00,24.4,19.7,29.92,West,262,8.0,11.0,82,0.00,,,0.00,Wunderground v.1.15,2013-03-04 09:43:00,
2013-03-04 04:48:00,24.3,19.6,29.92,West,273,7.0,13.0,82,0.00,,,0.00,Wunderground v.1.15,2013-03-04 09:48:00,
2013-03-04 04:53:00,24.3,19.6,29.92,WNW,290,7.0,13.0,82,0.00,,,0.00,Wunderground v.1.15,2013-03-04 09:53:00,
2013-03-04 04:58:00,24.3,19.6,29.92,West,262,7.0,13.0,82,0.00,,,0.00,Wunderground v.1.15,2013-03-04 09:58:00,
2013-03-04 05:03:00,24.2,19.5,29.92,WNW,288,9.0,9.0,82,0.00,,,0.00,Wunderground v.1.15,2013-03-04 10:03:00,
2013-03-04 05:08:00,24.2,19.5,29.92,WNW,294,10.0,15.0,82,0.00,,,0.00,Wunderground v.1.15,2013-03-04 10:08:00,
2013-03-04 05:13:00,24.2,19.5,29.92,West,266,8.0,11.0,82,0.00,,,0.00,Wunderground v.1.15,2013-03-04 10:13:00,
2013-03-04 05:18:00,24.3,19.9,29.92,West,269,8.0,13.0,83,0.00,,,0.00,Wunderground v.1.15,2013-03-04 10:18:00,
2013-03-04 05:23:00,24.3,19.9,29.92,WSW,245,10.0,13.0,83,0.00,,,0.00,Wunderground v.1.15,2013-03-04 10:23:00,
2013-03-04 05:28:00,24.2,19.8,29.92,WNW,290,6.0,13.0,83,0.00,,,0.00,Wunderground v.1.15,2013-03-04 10:28:00,
2013-03-04 05:33:00,24.2,19.8,29.92,WNW,290,5.0,10.0,83,0.00,,,0.00,Wunderground v.1.15,2013-03-04 10:33:00,
2013-03-04 05:38:00,24.2,19.8,29.92,NW,308,3.0,15.0,83,0.00,,,0.00,Wunderground v.1.15,2013-03-04 10:38:00,
2013-03-04 05:43:00,24.2,19.8,29.92,WNW,283,4.0,14.0,83,0.00,,,0.00,Wunderground v.1.15,2013-03-04 10:43:00,
2013-03-04 05:48:00,24.2,19.8,29.93,WSW,254,5.0,14.0,83,0.00,,,0.00,Wunderground v.1.15,2013-03-04 10:48:00,
2013-03-04 05:53:00,24.2,19.8,29.93,SW,229,4.0,9.0,83,0.00,,,0.00,Wunderground v.1.15,2013-03-04 10:53:00,
2013-03-04 05:58:00,24.1,19.7,29.93,NW,319,11.0,13.0,83,0.00,,,0.00,Wunderground v.1.15,2013-03-04 10:58:00,
2013-03-04 06:03:00,24.0,19.6,29.93,WNW,284,9.0,13.0,83,0.00,,,0.00,Wunderground v.1.15,2013-03-04 11:03:00,
2013-03-04 06:08:00,24.0,19.3,29.93,WSW,243,6.0,19.0,82,0.00,,,0.00,Wunderground v.1.15,2013-03-04 11:08:00,
2013-03-04 06:14:00,23.8,19.1,29.93,NW,319,11.0,23.0,82,0.00,,,0.00,Wunderground v.1.15,2013-03-04 11:14:00,
2013-03-04 06:19:00,23.8,19.1,29.93,West,263,4.0,23.0,82,0.00,,,0.00,Wunderground v.1.15,2013-03-04 11:19:00,
2013-03-04 06:24:00,23.7,19.3,29.93,West,277,11.0,17.0,83,0.00,,,0.00,Wunderground v.1.15,2013-03-04 11:24:00,
2013-03-04 06:29:00,23.6,18.6,29.93,WNW,289,9.0,18.0,81,0.00,,,0.00,Wunderground v.1.15,2013-03-04 11:29:00,
2013-03-04 06:34:00,23.5,18.8,29.94,West,264,10.0,12.0,82,0.00,,,0.00,Wunderground v.1.15,2013-03-04 11:34:00,
2013-03-04 06:39:00,23.5,18.8,29.94,WNW,290,7.0,13.0,82,0.00,,,0.00,Wunderground v.1.15,2013-03-04 11:39:00,
2013-03-04 06:44:00,23.4,18.4,29.94,WNW,286,8.0,13.0,81,0.00,,,0.00,Wunderground v.1.15,2013-03-04 11:44:00,
2013-03-04 06:49:00,23.4,18.4,29.94,West,276,8.0,14.0,81,0.00,,,0.00,Wunderground v.1.15,2013-03-04 11:49:00,
2013-03-04 06:54:00,23.4,18.4,29.94,WNW,291,5.0,17.0,81,0.00,,,0.00,Wunderground v.1.15,2013-03-04 11:54:00,
2013-03-04 06:59:00,23.3,18.3,29.94,West,276,8.0,17.0,81,0.00,,,0.00,Wunderground v.1.15,2013-03-04 11:59:00,
2013-03-04 07:04:00,23.3,18.3,29.94,WNW,289,8.0,14.0,81,0.00,,,0.00,Wunderground v.1.15,2013-03-04 12:04:00,
2013-03-04 07:09:00,23.3,18.3,29.94,West,279,4.0,14.0,81,0.00,,,0.00,Wunderground v.1.15,2013-03-04 12:09:00,
2013-03-04 07:14:00,23.3,18.0,29.94,West,265,4.0,17.0,80,0.00,,,0.00,Wunderground v.1.15,2013-03-04 12:14:00,
2013-03-04 07:19:00,23.3,18.0,29.94,WNW,290,11.0,17.0,80,0.00,,,0.00,Wunderground v.1.15,2013-03-04 12:19:00,
2013-03-04 07:24:00,23.4,18.1,29.94,WNW,288,8.0,16.0,80,0.00,,,0.00,Wunderground v.1.15,2013-03-04 12:24:00,
2013-03-04 07:29:00,23.4,18.1,29.94,WNW,292,11.0,19.0,80,0.00,,,0.00,Wunderground v.1.15,2013-03-04 12:29:00,
2013-03-04 07:34:00,23.4,18.1,29.94,West,275,5.0,15.0,80,0.00,,,0.00,Wunderground v.1.15,2013-03-04 12:34:00,
2013-03-04 07:39:00,23.5,18.2,29.95,West,262,9.0,15.0,80,0.00,,,0.00,Wunderground v.1.15,2013-03-04 12:39:00,
2013-03-04 07:44:00,23.5,18.2,29.94,West,278,7.0,16.0,80,0.00,,,0.00,Wunderground v.1.15,2013-03-04 12:44:00,
2013-03-04 07:49:00,23.5,18.2,29.95,West,274,3.0,16.0,80,0.00,,,0.00,Wunderground v.1.15,2013-03-04 12:49:00,
2013-03-04 07:54:00,23.6,18.3,29.95,West,273,11.0,11.0,80,0.00,,,0.00,Wunderground v.1.15,2013-03-04 12:54:00,
2013-03-04 07:59:00,23.6,18.3,29.95,WSW,254,5.0,21.0,80,0.00,,,0.00,Wunderground v.1.15,2013-03-04 12:59:00,
2013-03-04 08:04:00,23.8,18.5,29.95,WNW,296,9.0,12.0,80,0.00,,,0.00,Wunderground v.1.15,2013-03-04 13:04:00,
2013-03-04 08:09:00,23.9,18.6,29.95,West,267,22.0,22.0,80,0.00,,,0.00,Wunderground v.1.15,2013-03-04 13:09:00,
2013-03-04 08:15:00,24.0,18.7,29.95,West,267,4.0,18.0,80,0.00,,,0.00,Wunderground v.1.15,2013-03-04 13:15:00,
2013-03-04 08:20:00,24.2,18.9,29.95,West,271,4.0,8.0,80,0.00,,,0.00,Wunderground v.1.15,2013-03-04 13:20:00,
2013-03-04 08:25:00,24.2,18.9,29.95,WNW,298,10.0,15.0,80,0.00,,,0.00,Wunderground v.1.15,2013-03-04 13:25:00,
2013-03-04 08:30:00,24.2,18.9,29.95,West,262,5.0,7.0,80,0.00,,,0.00,Wunderground v.1.15,2013-03-04 13:30:00,
2013-03-04 08:35:00,24.2,18.6,29.95,NW,315,5.0,16.0,79,0.00,,,0.00,Wunderground v.1.15,2013-03-04 13:35:00,
2013-03-04 08:40:00,24.2,18.6,29.95,West,277,8.0,8.0,79,0.00,,,0.00,Wunderground v.1.15,2013-03-04 13:40:00,
2013-03-04 08:45:00,24.3,19.0,29.95,West,275,16.0,17.0,80,0.00,,,0.00,Wunderground v.1.15,2013-03-04 13:45:00,
2013-03-04 08:50:00,24.3,18.7,29.95,West,272,7.0,16.0,79,0.00,,,0.00,Wunderground v.1.15,2013-03-04 13:50:00,
2013-03-04 08:55:00,24.3,18.7,29.95,West,277,12.0,16.0,79,0.00,,,0.00,Wunderground v.1.15,2013-03-04 13:55:00,
2013-03-04 09:00:00,24.3,18.4,29.95,WNW,286,7.0,12.0,78,0.00,,,0.00,Wunderground v.1.15,2013-03-04 14:00:00,
2013-03-04 09:05:00,24.3,18.4,29.95,West,269,8.0,16.0,78,0.00,,,0.00,Wunderground v.1.15,2013-03-04 14:05:00,
2013-03-04 09:10:00,24.3,18.4,29.95,West,276,11.0,12.0,78,0.00,,,0.00,Wunderground v.1.15,2013-03-04 14:10:00,
2013-03-04 09:15:00,24.4,18.8,29.95,NW,308,14.0,14.0,79,0.00,,,0.00,Wunderground v.1.15,2013-03-04 14:15:00,
2013-03-04 09:20:00,24.3,18.4,29.95,West,281,8.0,10.0,78,0.00,,,0.00,Wunderground v.1.15,2013-03-04 14:20:00,
2013-03-04 09:25:00,24.4,18.5,29.95,NW,304,15.0,17.0,78,0.00,,,0.00,Wunderground v.1.15,2013-03-04 14:25:00,
2013-03-04 09:30:00,24.5,18.9,29.95,WNW,284,8.0,11.0,79,0.00,,,0.00,Wunderground v.1.15,2013-03-04 14:30:00,
2013-03-04 09:35:00,24.6,18.7,29.95,West,265,7.0,15.0,78,0.00,,,0.00,Wunderground v.1.15,2013-03-04 14:35:00,
2013-03-04 09:40:00,24.6,19.0,29.96,WNW,296,9.0,10.0,79,0.00,,,0.00,Wunderground v.1.15,2013-03-04 14:40:00,
2013-03-04 09:45:00,24.6,18.7,29.96,NW,310,5.0,16.0,78,0.00,,,0.00,Wunderground v.1.15,2013-03-04 14:45:00,
2013-03-04 09:50:00,24.8,19.2,29.96,West,279,7.0,10.0,79,0.00,,,0.00,Wunderground v.1.15,2013-03-04 14:50:00,
2013-03-04 09:55:00,24.9,19.0,29.96,West,279,4.0,15.0,78,0.00,,,0.00,Wunderground v.1.15,2013-03-04 14:55:00,
2013-03-04 10:01:00,25.1,19.2,29.95,WNW,284,12.0,12.0,78,0.00,,,0.00,Wunderground v.1.15,2013-03-04 15:01:00,
2013-03-04 10:06:00,25.2,19.3,29.95,West,275,4.0,15.0,78,0.00,,,0.00,Wunderground v.1.15,2013-03-04 15:06:00,
2013-03-04 10:11:00,25.5,19.6,29.95,NW,305,7.0,10.0,78,0.00,,,0.00,Wunderground v.1.15,2013-03-04 15:11:00,
2013-03-04 10:16:00,25.6,19.7,29.96,WNW,283,7.0,14.0,78,0.00,,,0.00,Wunderground v.1.15,2013-03-04 15:16:00,
2013-03-04 10:21:00,25.6,19.4,29.96,WNW,293,10.0,12.0,77,0.00,,,0.00,Wunderground v.1.15,2013-03-04 15:21:00,
2013-03-04 10:26:00,25.6,19.4,29.96,WNW,283,5.0,17.0,77,0.00,,,0.00,Wunderground v.1.15,2013-03-04 15:26:00,
2013-03-04 10:31:00,25.6,19.7,29.96,West,271,8.0,11.0,78,0.00,,,0.00,Wunderground v.1.15,2013-03-04 15:31:00,
2013-03-04 10:36:00,25.6,19.4,29.96,West,281,7.0,12.0,77,0.00,,,0.00,Wunderground v.1.15,2013-03-04 15:36:00,
2013-03-04 10:41:00,25.7,19.8,29.96,West,280,5.0,11.0,78,0.00,,,0.00,Wunderground v.1.15,2013-03-04 15:41:00,
2013-03-04 10:46:00,25.7,19.8,29.96,NNW,332,8.0,18.0,78,0.00,,,0.00,Wunderground v.1.15,2013-03-04 15:46:00,
2013-03-04 10:51:00,25.7,19.8,29.96,WNW,292,6.0,8.0,78,0.00,,,0.00,Wunderground v.1.15,2013-03-04 15:51:00,
2013-03-04 10:56:00,25.7,19.5,29.96,West,264,3.0,23.0,77,0.00,,,0.00,Wunderground v.1.15,2013-03-04 15:56:00,
2013-03-04 11:01:00,25.7,19.8,29.96,West,279,7.0,13.0,78,0.00,,,0.00,Wunderground v.1.15,2013-03-04 16:01:00,
2013-03-04 11:06:00,25.8,19.6,29.96,West,270,8.0,14.0,77,0.00,,,0.00,Wunderground v.1.15,2013-03-04 16:06:00,
2013-03-04 11:11:00,25.9,19.7,29.96,West,260,8.0,15.0,77,0.00,,,0.00,Wunderground v.1.15,2013-03-04 16:11:00,
2013-03-04 11:16:00,25.9,19.4,29.96,WNW,286,15.0,17.0,76,0.00,,,0.00,Wunderground v.1.15,2013-03-04 16:16:00,
2013-03-04 11:21:00,26.0,19.5,29.96,West,259,4.0,9.0,76,0.00,,,0.00,Wunderground v.1.15,2013-03-04 16:21:00,
2013-03-04 11:26:00,26.3,20.1,29.96,WNW,288,10.0,12.0,77,0.00,,,0.00,Wunderground v.1.15,2013-03-04 16:26:00,
2013-03-04 11:31:00,26.4,19.9,29.96,WNW,302,6.0,12.0,76,0.00,,,0.00,Wunderground v.1.15,2013-03-04 16:31:00,
2013-03-04 11:36:00,26.6,19.7,29.96,West,276,6.0,12.0,75,0.00,,,0.00,Wunderground v.1.15,2013-03-04 16:36:00,
2013-03-04 11:41:00,26.7,19.8,29.96,SW,236,5.0,11.0,75,0.00,,,0.00,Wunderground v.1.15,2013-03-04 16:41:00,
2013-03-04 11:46:00,26.7,19.8,29.96,West,276,7.0,17.0,75,0.00,,,0.00,Wunderground v.1.15,2013-03-04 16:46:00,
2013-03-04 11:51:00,26.7,19.8,29.96,West,280,9.0,12.0,75,0.00,,,0.00,Wunderground v.1.15,2013-03-04 16:51:00,
2013-03-04 11:56:00,26.9,20.0,29.95,North,360,5.0,13.0,75,0.00,,,0.00,Wunderground v.1.15,2013-03-04 16:56:00,
2013-03-04 12:01:00,27.1,20.2,29.95,SW,219,9.0,12.0,75,0.00,,,0.00,Wunderground v.1.15,2013-03-04 17:01:00,
2013-03-04 12:06:00,27.1,19.9,29.95,West,280,7.0,14.0,74,0.00,,,0.00,Wunderground v.1.15,2013-03-04 17:06:00,
2013-03-04 12:11:00,27.1,19.9,29.96,WNW,300,7.0,15.0,74,0.00,,,0.00,Wunderground v.1.15,2013-03-04 17:11:00,
2013-03-04 12:16:00,27.2,20.0,29.95,WNW,294,18.0,18.0,74,0.00,,,0.00,Wunderground v.1.15,2013-03-04 17:16:00,
2013-03-04 12:21:00,27.3,20.1,29.95,WSW,257,6.0,11.0,74,0.00,,,0.00,Wunderground v.1.15,2013-03-04 17:21:00,
2013-03-04 12:26:00,27.4,19.9,29.95,West,267,8.0,14.0,73,0.00,,,0.00,Wunderground v.1.15,2013-03-04 17:26:00,
2013-03-04 12:31:00,27.3,19.8,29.95,WNW,289,7.0,17.0,73,0.00,,,0.00,Wunderground v.1.15,2013-03-04 17:31:00,
2013-03-04 12:36:00,27.2,20.0,29.95,NW,306,14.0,17.0,74,0.00,,,0.00,Wunderground v.1.15,2013-03-04 17:36:00,
2013-03-04 12:41:00,27.5,20.0,29.95,West,277,5.0,14.0,73,0.00,,,0.00,Wunderground v.1.15,2013-03-04 17:41:00,
2013-03-04 12:46:00,27.6,20.1,29.95,West,273,5.0,16.0,73,0.00,,,0.00,Wunderground v.1.15,2013-03-04 17:46:00,
2013-03-04 12:51:00,27.9,20.4,29.95,West,271,8.0,12.0,73,0.00,,,0.00,Wunderground v.1.15,2013-03-04 17:51:00,
2013-03-04 12:56:00,27.9,20.0,29.95,WNW,293,10.0,15.0,72,0.00,,,0.00,Wunderground v.1.15,2013-03-04 17:56:00,
2013-03-04 13:01:00,28.2,20.3,29.95,NW,304,8.0,11.0,72,0.00,,,0.00,Wunderground v.1.15,2013-03-04 18:01:00,
2013-03-04 13:07:00,27.9,20.0,29.95,West,269,16.0,20.0,72,0.00,,,0.00,Wunderground v.1.15,2013-03-04 18:07:00,
2013-03-04 13:12:00,27.9,20.4,29.95,West,269,14.0,14.0,73,0.00,,,0.00,Wunderground v.1.15,2013-03-04 18:12:00,
2013-03-04 13:17:00,27.8,20.3,29.95,WSW,257,6.0,15.0,73,0.00,,,0.00,Wunderground v.1.15,2013-03-04 18:17:00,
2013-03-04 13:22:00,28.0,20.5,29.94,West,275,5.0,12.0,73,0.00,,,0.00,Wunderground v.1.15,2013-03-04 18:22:00,
2013-03-04 13:27:00,28.3,20.7,29.94,WNW,289,5.0,14.0,73,0.00,,,0.00,Wunderground v.1.15,2013-03-04 18:27:00,
2013-03-04 13:29:00,28.5,20.6,29.94,WSW,237,6.0,17.0,72,0.00,,,0.00,Wunderground v.1.15,2013-03-04 18:29:00,
2013-03-04 13:34:00,28.6,20.7,29.94,West,279,12.0,13.0,72,0.00,,,0.00,Wunderground v.1.15,2013-03-04 18:34:00,
2013-03-04 13:40:00,28.6,20.7,29.94,West,265,7.0,8.0,72,0.00,,,0.00,Wunderground v.1.15,2013-03-04 18:40:00,
2013-03-04 13:45:00,28.6,20.4,29.94,WNW,286,7.0,13.0,71,0.00,,,0.00,Wunderground v.1.15,2013-03-04 18:45:00,
2013-03-04 13:50:00,28.7,20.1,29.94,WSW,253,14.0,16.0,70,0.00,,,0.00,Wunderground v.1.15,2013-03-04 18:50:00,
2013-03-04 13:55:00,28.8,20.2,29.95,NW,317,7.0,16.0,70,0.00,,,0.00,Wunderground v.1.15,2013-03-04 18:55:00,
2013-03-04 14:00:00,28.8,20.2,29.94,West,281,13.0,13.0,70,0.00,,,0.00,Wunderground v.1.15,2013-03-04 19:00:00,
2013-03-04 14:05:00,28.9,20.7,29.94,West,272,10.0,17.0,71,0.00,,,0.01,Wunderground v.1.15,2013-03-04 19:05:00,
2013-03-04 14:10:00,28.9,20.3,29.94,WNW,291,5.0,9.0,70,0.00,,,0.01,Wunderground v.1.15,2013-03-04 19:10:00,
2013-03-04 14:15:00,29.5,21.3,29.94,West,265,8.0,14.0,71,0.00,,,0.01,Wunderground v.1.15,2013-03-04 19:15:00,
2013-03-04 14:20:00,29.6,20.7,29.94,West,265,16.0,16.0,69,0.00,,,0.01,Wunderground v.1.15,2013-03-04 19:20:00,
2013-03-04 14:25:00,29.6,21.0,29.94,West,274,9.0,19.0,70,0.00,,,0.01,Wunderground v.1.15,2013-03-04 19:25:00,
2013-03-04 14:30:00,29.7,21.1,29.94,West,274,8.0,9.0,70,0.00,,,0.01,Wunderground v.1.15,2013-03-04 19:30:00,
2013-03-04 14:35:00,29.9,21.3,29.95,WNW,303,8.0,16.0,70,0.00,,,0.01,Wunderground v.1.15,2013-03-04 19:35:00,
2013-03-04 14:40:00,29.9,21.3,29.94,South,188,3.0,7.0,70,0.00,,,0.01,Wunderground v.1.15,2013-03-04 19:40:00,
2013-03-04 14:46:00,30.0,20.7,29.94,WNW,298,13.0,20.0,68,0.00,,,0.01,Wunderground v.1.15,2013-03-04 19:46:00,
2013-03-04 14:50:00,29.9,21.0,29.95,West,261,8.0,11.0,69,0.00,,,0.01,Wunderground v.1.15,2013-03-04 19:50:00,
2013-03-04 14:55:00,29.9,20.6,29.95,West,273,5.0,18.0,68,0.00,,,0.01,Wunderground v.1.15,2013-03-04 19:55:00,
2013-03-04 15:01:00,29.8,20.9,29.95,WNW,300,8.0,13.0,69,0.00,,,0.01,Wunderground v.1.15,2013-03-04 20:01:00,
2013-03-04 15:06:00,30.0,21.1,29.95,WNW,290,6.0,13.0,69,0.00,,,0.01,Wunderground v.1.15,2013-03-04 20:06:00,
2013-03-04 15:11:00,30.1,21.2,29.95,SW,221,8.0,11.0,69,0.00,,,0.01,Wunderground v.1.15,2013-03-04 20:11:00,
2013-03-04 15:16:00,30.1,20.8,29.95,West,277,11.0,17.0,68,0.00,,,0.01,Wunderground v.1.15,2013-03-04 20:16:00,
2013-03-04 15:21:00,29.8,20.9,29.95,West,275,6.0,8.0,69,0.00,,,0.01,Wunderground v.1.15,2013-03-04 20:21:00,
2013-03-04 15:26:00,30.1,21.2,29.95,NW,307,10.0,12.0,69,0.00,,,0.01,Wunderground v.1.15,2013-03-04 20:26:00,
2013-03-04 15:31:00,30.2,21.2,29.95,West,259,7.0,7.0,69,0.00,,,0.01,Wunderground v.1.15,2013-03-04 20:31:00,
2013-03-04 15:36:00,30.3,20.6,29.95,West,266,5.0,16.0,67,0.00,,,0.01,Wunderground v.1.15,2013-03-04 20:36:00,
2013-03-04 15:41:00,30.2,20.6,29.95,WNW,299,8.0,16.0,67,0.00,,,0.01,Wunderground v.1.15,2013-03-04 20:41:00,
2013-03-04 15:46:00,30.1,20.8,29.95,West,281,12.0,22.0,68,0.00,,,0.01,Wunderground v.1.15,2013-03-04 20:46:00,
2013-03-04 15:51:00,30.1,21.2,29.95,West,277,4.0,10.0,69,0.00,,,0.01,Wunderground v.1.15,2013-03-04 20:51:00,
2013-03-04 15:56:00,30.3,21.3,29.95,West,272,6.0,11.0,69,0.00,,,0.01,Wunderground v.1.15,2013-03-04 20:56:00,
2013-03-04 16:01:00,30.4,21.1,29.95,WSW,246,5.0,11.0,68,0.00,,,0.01,Wunderground v.1.15,2013-03-04 21:01:00,
2013-03-04 16:06:00,30.4,21.4,29.95,West,274,6.0,14.0,69,0.00,,,0.01,Wunderground v.1.15,2013-03-04 21:06:00,
2013-03-04 16:11:00,30.4,21.1,29.95,West,267,6.0,16.0,68,0.00,,,0.01,Wunderground v.1.15,2013-03-04 21:11:00,
2013-03-04 16:16:00,30.3,21.3,29.95,WNW,285,9.0,18.0,69,0.00,,,0.01,Wunderground v.1.15,2013-03-04 21:16:00,
2013-03-04 16:21:00,30.2,21.2,29.96,WNW,292,9.0,13.0,69,0.00,,,0.01,Wunderground v.1.15,2013-03-04 21:21:00,
2013-03-04 16:26:00,30.2,21.6,29.96,WNW,288,5.0,13.0,70,0.00,,,0.01,Wunderground v.1.15,2013-03-04 21:26:00,
2013-03-04 16:31:00,30.2,21.6,29.96,WNW,290,7.0,11.0,70,0.00,,,0.01,Wunderground v.1.15,2013-03-04 21:31:00,
2013-03-04 16:37:00,30.2,21.6,29.96,WNW,286,7.0,15.0,70,0.00,,,0.01,Wunderground v.1.15,2013-03-04 21:37:00,
2013-03-04 16:42:00,30.2,21.6,29.96,West,278,8.0,11.0,70,0.00,,,0.01,Wunderground v.1.15,2013-03-04 21:42:00,
2013-03-04 16:47:00,30.1,21.5,29.96,West,280,7.0,13.0,70,0.00,,,0.01,Wunderground v.1.15,2013-03-04 21:47:00,
2013-03-04 16:52:00,30.0,21.7,29.96,West,265,12.0,18.0,71,0.00,,,0.01,Wunderground v.1.15,2013-03-04 21:52:00,
2013-03-04 16:57:00,29.9,21.6,29.96,WSW,256,8.0,18.0,71,0.00,,,0.01,Wunderground v.1.15,2013-03-04 21:57:00,
2013-03-04 17:02:00,29.9,21.6,29.96,NW,314,8.0,15.0,71,0.00,,,0.01,Wunderground v.1.15,2013-03-04 22:02:00,
2013-03-04 17:07:00,29.9,22.0,29.96,WNW,286,10.0,18.0,72,0.00,,,0.01,Wunderground v.1.15,2013-03-04 22:07:00,
2013-03-04 17:12:00,29.9,22.0,29.96,West,268,8.0,12.0,72,0.00,,,0.01,Wunderground v.1.15,2013-03-04 22:12:00,
2013-03-04 17:17:00,29.9,22.0,29.96,WNW,284,7.0,16.0,72,0.00,,,0.01,Wunderground v.1.15,2013-03-04 22:17:00,
2013-03-04 17:22:00,29.9,22.0,29.96,West,278,9.0,14.0,72,0.00,,,0.01,Wunderground v.1.15,2013-03-04 22:22:00,
2013-03-04 17:27:00,29.9,22.0,29.96,West,265,6.0,15.0,72,0.00,,,0.01,Wunderground v.1.15,2013-03-04 22:27:00,
2013-03-04 17:32:00,30.0,22.4,29.97,West,260,5.0,14.0,73,0.00,,,0.01,Wunderground v.1.15,2013-03-04 22:32:00,
2013-03-04 17:37:00,30.0,22.4,29.97,WNW,286,5.0,14.0,73,0.00,,,0.01,Wunderground v.1.15,2013-03-04 22:37:00,
2013-03-04 17:42:00,30.1,22.5,29.97,ENE,65,4.0,12.0,73,0.00,,,0.01,Wunderground v.1.15,2013-03-04 22:42:00,
2013-03-04 17:47:00,30.1,22.8,29.97,North,355,5.0,14.0,74,0.00,,,0.01,Wunderground v.1.15,2013-03-04 22:47:00,
2013-03-04 17:52:00,30.1,22.8,29.97,WNW,285,4.0,12.0,74,0.00,,,0.01,Wunderground v.1.15,2013-03-04 22:52:00,
2013-03-04 17:57:00,30.1,22.8,29.97,West,267,5.0,12.0,74,0.00,,,0.01,Wunderground v.1.15,2013-03-04 22:57:00,
2013-03-04 18:02:00,30.2,22.9,29.97,West,267,7.0,10.0,74,0.00,,,0.01,Wunderground v.1.15,2013-03-04 23:02:00,
2013-03-04 18:07:00,30.2,23.2,29.97,WNW,303,9.0,13.0,75,0.00,,,0.01,Wunderground v.1.15,2013-03-04 23:07:00,
2013-03-04 18:12:00,30.2,23.2,29.97,WNW,302,6.0,10.0,75,0.00,,,0.01,Wunderground v.1.15,2013-03-04 23:12:00,
2013-03-04 18:18:00,30.3,23.3,29.97,WNW,293,5.0,11.0,75,0.00,,,0.01,Wunderground v.1.15,2013-03-04 23:18:00,
2013-03-04 18:23:00,30.3,23.3,29.97,WSW,257,6.0,11.0,75,0.00,,,0.01,Wunderground v.1.15,2013-03-04 23:23:00,
2013-03-04 18:28:00,30.3,23.3,29.98,NW,324,7.0,15.0,75,0.00,,,0.01,Wunderground v.1.15,2013-03-04 23:28:00,
2013-03-04 18:33:00,30.5,23.5,29.98,WNW,300,8.0,13.0,75,0.00,,,0.01,Wunderground v.1.15,2013-03-04 23:33:00,
2013-03-04 18:38:00,30.5,23.8,29.98,WNW,293,5.0,13.0,76,0.00,,,0.01,Wunderground v.1.15,2013-03-04 23:38:00,
2013-03-04 18:43:00,30.5,23.8,29.98,WNW,292,9.0,11.0,76,0.00,,,0.01,Wunderground v.1.15,2013-03-04 23:43:00,
2013-03-04 18:48:00,30.6,23.6,29.98,WNW,289,9.0,17.0,75,0.00,,,0.01,Wunderground v.1.15,2013-03-04 23:48:00,
2013-03-04 18:53:00,30.6,23.9,29.98,WNW,300,2.0,12.0,76,0.00,,,0.01,Wunderground v.1.15,2013-03-04 23:53:00,
2013-03-04 18:58:00,30.6,23.9,29.98,WNW,284,10.0,12.0,76,0.00,,,0.01,Wunderground v.1.15,2013-03-04 23:58:00,
2013-03-04 19:03:00,30.6,23.6,29.99,West,269,3.0,15.0,75,0.00,,,0.01,Wunderground v.1.15,2013-03-05 00:03:00,
2013-03-04 19:08:00,30.6,23.6,29.98,WNW,303,6.0,15.0,75,0.00,,,0.01,Wunderground v.1.15,2013-03-05 00:08:00,
2013-03-04 19:13:00,30.6,23.3,29.99,West,272,9.0,16.0,74,0.00,,,0.01,Wunderground v.1.15,2013-03-05 00:13:00,
2013-03-04 19:18:00,30.5,23.5,29.99,WNW,290,6.0,19.0,75,0.00,,,0.01,Wunderground v.1.15,2013-03-05 00:18:00,
2013-03-04 19:23:00,30.5,23.8,29.99,West,280,5.0,11.0,76,0.00,,,0.01,Wunderground v.1.15,2013-03-05 00:23:00,
2013-03-04 19:28:00,30.5,23.5,29.99,WNW,292,9.0,16.0,75,0.00,,,0.01,Wunderground v.1.15,2013-03-05 00:28:00,
2013-03-04 19:33:00,30.6,23.9,29.99,WNW,284,7.0,12.0,76,0.00,,,0.01,Wunderground v.1.15,2013-03-05 00:33:00,
2013-03-04 19:39:00,30.6,23.6,29.99,West,270,3.0,16.0,75,0.00,,,0.01,Wunderground v.1.15,2013-03-05 00:39:00,
2013-03-04 19:44:00,30.6,23.6,29.99,WNW,284,11.0,22.0,75,0.00,,,0.01,Wunderground v.1.15,2013-03-05 00:44:00,
2013-03-04 19:49:00,30.5,23.2,29.99,WNW,285,6.0,23.0,74,0.00,,,0.01,Wunderground v.1.15,2013-03-05 00:49:00,
2013-03-04 19:54:00,30.4,23.4,29.99,WNW,287,9.0,18.0,75,0.00,,,0.01,Wunderground v.1.15,2013-03-05 00:54:00,
2013-03-04 19:59:00,30.4,23.4,29.99,WNW,286,3.0,18.0,75,0.00,,,0.01,Wunderground v.1.15,2013-03-05 00:59:00,
2013-03-04 20:04:00,30.3,23.3,29.99,WNW,284,7.0,18.0,75,0.00,,,0.01,Wunderground v.1.15,2013-03-05 01:04:00,
2013-03-04 20:09:00,30.3,23.0,30.00,NW,319,9.0,18.0,74,0.00,,,0.01,Wunderground v.1.15,2013-03-05 01:09:00,
2013-03-04 20:14:00,30.2,23.2,30.00,NNW,347,9.0,26.0,75,0.00,,,0.01,Wunderground v.1.15,2013-03-05 01:14:00,
2013-03-04 20:19:00,30.1,23.1,30.00,North,5,5.0,26.0,75,0.00,,,0.01,Wunderground v.1.15,2013-03-05 01:19:00,
2013-03-04 20:24:00,30.1,23.1,30.00,West,277,2.0,11.0,75,0.00,,,0.01,Wunderground v.1.15,2013-03-05 01:24:00,
2013-03-04 20:29:00,29.9,22.9,30.00,West,275,4.0,14.0,75,0.00,,,0.01,Wunderground v.1.15,2013-03-05 01:29:00,
2013-03-04 20:34:00,29.9,22.9,30.01,West,271,6.0,16.0,75,0.00,,,0.01,Wunderground v.1.15,2013-03-05 01:34:00,
2013-03-04 20:39:00,29.8,22.8,30.01,WNW,298,6.0,16.0,75,0.00,,,0.01,Wunderground v.1.15,2013-03-05 01:39:00,
2013-03-04 20:44:00,29.8,22.5,30.01,West,278,8.0,17.0,74,0.00,,,0.01,Wunderground v.1.15,2013-03-05 01:44:00,
2013-03-04 20:49:00,29.7,22.1,30.01,NNW,336,13.0,17.0,73,0.00,,,0.01,Wunderground v.1.15,2013-03-05 01:49:00,
2013-03-04 20:54:00,29.7,22.1,30.01,WNW,302,5.0,16.0,73,0.00,,,0.01,Wunderground v.1.15,2013-03-05 01:54:00,
2013-03-04 20:59:00,29.6,22.3,30.01,WNW,286,6.0,16.0,74,0.00,,,0.01,Wunderground v.1.15,2013-03-05 01:59:00,
2013-03-04 21:04:00,29.5,22.6,30.01,NW,305,10.0,15.0,75,0.00,,,0.01,Wunderground v.1.15,2013-03-05 02:04:00,
2013-03-04 21:09:00,29.4,22.8,30.01,WNW,297,4.0,16.0,76,0.00,,,0.01,Wunderground v.1.15,2013-03-05 02:09:00,
2013-03-04 21:14:00,29.4,22.8,30.01,WNW,282,7.0,17.0,76,0.00,,,0.01,Wunderground v.1.15,2013-03-05 02:14:00,
2013-03-04 21:19:00,29.3,22.7,30.01,NNW,336,4.0,17.0,76,0.00,,,0.01,Wunderground v.1.15,2013-03-05 02:19:00,
2013-03-04 21:24:00,29.2,22.3,30.01,WNW,302,5.0,14.0,75,0.00,,,0.01,Wunderground v.1.15,2013-03-05 02:24:00,
2013-03-04 21:29:00,29.2,22.6,30.01,WSW,252,4.0,18.0,76,0.00,,,0.01,Wunderground v.1.15,2013-03-05 02:29:00,
2013-03-04 21:34:00,29.1,22.5,30.01,West,275,11.0,15.0,76,0.00,,,0.01,Wunderground v.1.15,2013-03-05 02:34:00,
2013-03-04 21:39:00,29.1,22.5,30.02,WNW,297,4.0,15.0,76,0.00,,,0.01,Wunderground v.1.15,2013-03-05 02:39:00,
2013-03-04 21:44:00,29.1,22.5,30.02,NW,315,9.0,13.0,76,0.00,,,0.01,Wunderground v.1.15,2013-03-05 02:44:00,
2013-03-04 21:49:00,29.1,22.8,30.02,NW,315,5.0,13.0,77,0.00,,,0.01,Wunderground v.1.15,2013-03-05 02:49:00,
2013-03-04 21:54:00,29.0,22.4,30.02,WNW,286,8.0,18.0,76,0.00,,,0.01,Wunderground v.1.15,2013-03-05 02:54:00,
2013-03-04 21:59:00,29.0,22.4,30.02,West,268,3.0,18.0,76,0.00,,,0.01,Wunderground v.1.15,2013-03-05 02:59:00,
2013-03-04 22:04:00,29.0,22.4,30.02,West,278,2.0,11.0,76,0.00,,,0.01,Wunderground v.1.15,2013-03-05 03:04:00,
2013-03-04 22:09:00,28.9,22.6,30.02,NW,304,7.0,13.0,77,0.00,,,0.01,Wunderground v.1.15,2013-03-05 03:09:00,
2013-03-04 22:14:00,28.9,22.3,30.02,NNW,344,4.0,12.0,76,0.00,,,0.01,Wunderground v.1.15,2013-03-05 03:14:00,
2013-03-04 22:19:00,28.9,22.3,30.03,NW,305,4.0,12.0,76,0.00,,,0.01,Wunderground v.1.15,2013-03-05 03:19:00,
2013-03-04 22:24:00,28.8,22.2,30.02,WNW,282,6.0,16.0,76,0.00,,,0.01,Wunderground v.1.15,2013-03-05 03:24:00,
2013-03-04 22:29:00,28.8,22.2,30.02,NNW,348,9.0,16.0,76,0.00,,,0.01,Wunderground v.1.15,2013-03-05 03:29:00,
2013-03-04 22:34:00,28.8,22.5,30.03,WNW,303,1.0,10.0,77,0.00,,,0.01,Wunderground v.1.15,2013-03-05 03:34:00,
2013-03-04 22:39:00,28.7,22.4,30.03,NW,310,6.0,14.0,77,0.00,,,0.01,Wunderground v.1.15,2013-03-05 03:39:00,
2013-03-04 22:44:00,28.6,22.3,30.03,NE,37,4.0,13.0,77,0.00,,,0.01,Wunderground v.1.15,2013-03-05 03:44:00,
2013-03-04 22:49:00,28.6,22.6,30.03,WNW,296,9.0,14.0,78,0.00,,,0.01,Wunderground v.1.15,2013-03-05 03:49:00,
2013-03-04 22:54:00,28.6,22.6,30.03,North,360,6.0,19.0,78,0.00,,,0.01,Wunderground v.1.15,2013-03-05 03:54:00,
2013-03-04 22:59:00,28.6,22.6,30.03,West,271,6.0,19.0,78,0.00,,,0.01,Wunderground v.1.15,2013-03-05 03:59:00,
2013-03-04 23:04:00,28.5,22.5,30.03,West,272,4.0,16.0,78,0.00,,,0.01,Wunderground v.1.15,2013-03-05 04:04:00,
2013-03-04 23:09:00,28.4,22.4,30.03,West,277,8.0,16.0,78,0.00,,,0.01,Wunderground v.1.15,2013-03-05 04:09:00,
2013-03-04 23:15:00,28.4,22.7,30.03,WNW,298,10.0,14.0,79,0.00,,,0.01,Wunderground v.1.15,2013-03-05 04:15:00,
2013-03-04 23:20:00,28.3,22.6,30.03,WNW,285,11.0,12.0,79,0.00,,,0.01,Wunderground v.1.15,2013-03-05 04:20:00,
2013-03-04 23:25:00,28.2,22.5,30.03,West,279,6.0,12.0,79,0.00,,,0.01,Wunderground v.1.15,2013-03-05 04:25:00,
2013-03-04 23:30:00,28.2,22.5,30.03,WNW,284,3.0,6.0,79,0.00,,,0.01,Wunderground v.1.15,2013-03-05 04:30:00,
2013-03-04 23:35:00,28.1,22.4,30.03,West,276,8.0,11.0,79,0.00,,,0.01,Wunderground v.1.15,2013-03-05 04:35:00,
2013-03-04 23:40:00,28.1,22.7,30.03,NW,309,9.0,15.0,80,0.00,,,0.01,Wunderground v.1.15,2013-03-05 04:40:00,
2013-03-04 23:45:00,28.1,22.7,30.03,NW,304,4.0,15.0,80,0.00,,,0.01,Wunderground v.1.15,2013-03-05 04:45:00,
2013-03-04 23:50:00,28.0,22.6,30.03,WNW,284,3.0,6.0,80,0.00,,,0.01,Wunderground v.1.15,2013-03-05 04:50:00,
2013-03-04 23:55:00,28.0,22.9,30.03,WNW,295,2.0,10.0,81,0.00,,,0.01,Wunderground v.1.15,2013-03-05 04:55:00,